Showing default

INTELSAT 29E, 41308

Orbit data source: Space-Track

INTELSAT 29E, 41308 is a payload satellite owned by Intelsat SA (US) (US) in GEO that was launched on Wed, 27 Jan 2016 UTC via an ARIANE 5ECA launch vehicle from the French Guiana (FRGUI). Payload-class satellites include a variety of spacecraft equipped with specific instruments for various scientific and technological missions. These include communications satellites like Starlink; space stations such as the ISS; scientific satellites like the Hubble; Earth observation satellites from companies like Planet Labs, Umbra, and HawkEye 360; GPS; miniature CubeSats for education and research; and military/defense satellites.

Not visible in the next 10 days
Identifier
41308, 2016-004A
Orbit
GEO
Country
Flag of USUS / ITSO
Related business
Manufacturer
Boeing/ES
Mission
Non-operational Commercial Communications
Bus & Motor
BSS-702MP, LEROS
Mass
6,552 kg wet, ~2,946 kg dry
Launch date (UTC)
2016-01-27 (11 years ago)
Launch vehicle
ARIANE 5ECA
Launch site
French Guiana (FRGUI)
Object type
Payload
Rocket body
Debris
Shape & HBR
Box + 2 Pan, 22.0 m
Radar Cross Section
59.953 m², Large (>1 m²)

Expand to show TLE details & history
Last TLE update: 13 hours ago

TLE from 13 hours ago
0 INTELSAT 29E
1 41308U 16004A   26257.95424089 -.00000360  00000-0  00000-0 0  9990
2 41308   6.7187  69.1882 0003727 125.7862 257.3960  1.00623705 39188
Epoch: 2026-09-14T22:54Z
TLE epoch observation values (Epoch: 2026-09-14T22:54:06.412Z)
Latitude
2.61511°
Longitude
114.71838°
Altitude
35,690.834 km
Speed
3.078 km/s
True Right ascension
06h 08m 41s
True Declination
2° 36' 45"
Sunlit
Object was in daylight at epoch
Visualization orbit readout
Latitude
Unknown
Longitude
Unknown
Altitude
Unknown
Speed
Unknown
Apparent Right ascension
Unknown
Apparent Declination
Unknown
Sunlit
N/A
Visualization observer readout
Local Sidereal Time
04:10:30
Azimuth
Unknown
Elevation
Unknown
Doppler factor
Unknown
Orbital elements
Apogee altitude
35,704.956 km
Perigee altitude
35,673.599 km
Semi-major axis
42,067.415 km
Eccentricity
0.00037
Inclination
6.7187°
RAAN
69.1882°
Arg. of periapsis
125.7862°
True anomaly
257.35433°
Mean anomaly
257.396°
Eccentric anomaly
257.37516°
Mean motion
0.25155 °/min
Orbital period
1,431.13 mins
BSTAR
0
Loading maneuver chart data...
Computing Atmospheric mass density...
Loading historical data...
Loading historical data...
Loading historical data...
Loading historical data...
Loading historical data...
Loading historical data...
Loading historical data...
Other satellites on launch #4 in the year 2016 (2016-01-27 UTC)

Documentation

Showing up to 5 results
|